Regional Weather Roundup
Issued by NWS Sterling, VA

Home | Current Version | Previous Version | Graphics & Text | Print | Product List | Glossary On
Versions: 1 2 3 4 5 6 7 8 9 10 11 12 13 14 15 16 17 18 19 20 21 22 23 24 25 26 27 28 29 30 31 32 33 34 35 36 37 38 39 40 41 42 43 44 45 46 47 48 49 50
000
ASUS41 KLWX 281810
RWRLWX

REGIONAL WEATHER ROUNDUP
NATIONAL WEATHER SERVICE BALTIMORE MD/WASHINGTON DC
100 PM EST SUN DEC 28 2014

Note: "FAIR" indicates few or no clouds below 12,000 feet
with no significant weather and/or obstructions to visibility.
 TC=TEMPERATURE CELSIUS

 * =Non NWS site. Station does not report precipitation (e.g. rain,
    snow, etc.), thunder, or fog.

DCZ001-MDZ009-015-VAZ040>042-051-053>054-281900-
WASHINGTON METRO

CITY           SKY/WX    TMP DP  RH WIND       PRES   REMARKS
WASHINGTON NAT CLOUDY    57  40  52 S6        29.95F
DULLES         CLOUDY    56  41  57 CALM      29.95F
ANDREWS AFB    PTSUNNY   57  40  51 NW5       29.94F
FT BELVOIR     PTSUNNY   59  40  49 NW2       29.94F
QUANTICO       CLOUDY    51  39  63 SW6       29.96F
COLLEGE PARK*  PTSUNNY   59  41  51 NW9       29.94F
LEESBURG*      CLOUDY    57  46  67 N7        29.95F
MANASSAS*      CLOUDY    57  41  54 CALM      29.95F
GAITHERSBURG*  CLOUDY    55  41  58 NW5       29.98S

$$

MDZ006>007-011-014-281900-
BALTIMORE METRO

CITY           SKY/WX    TMP DP  RH WIND       PRES   REMARKS
BWI AIRPORT    CLOUDY    58  42  55 NW10      29.93F
MD SCIENCE CTR   N/A     58  41  53 MISG      29.94F
ANNAPOLIS      CLOUDY    54  40  59 NW5       29.93F
FORT MEADE*    CLOUDY    59  41  51 NW6       29.96F

$$

MDZ012-015-019>023-281900-
MARYLAND EASTERN SHORE

CITY           SKY/WX    TMP DP  RH WIND       PRES   REMARKS
OCEAN CITY     CLOUDY    58  43  57 W12G18    29.95S
SALISBURY      CLOUDY    60  42  51 W7        29.95F
BAY BRIDGE AP*   N/A     55  37  50 CALM      29.94F
CAMBRIDGE*     CLOUDY    59  41  51 SW3       29.94F
EASTON*        MOSUNNY   59  43  55 SW7       29.98F

$$

MDZ017>025-281900-
SOUTHERN MARYLAND

CITY           SKY/WX    TMP DP  RH WIND       PRES   REMARKS
PATUXENT RIVER CLOUDY    58  39  49 NW6       29.94F
ST INIGOES     CLOUDY    61  39  44 CALM      29.94F
LEONARDTOWN*   CLOUDY    59  37  44 W5        29.96F

$$

MDZ003>005-281900-
NORTH CENTRAL MARYLAND

CITY           SKY/WX    TMP DP  RH WIND       PRES   REMARKS
FREDERICK*     SUNNY     61  39  44 NW7       29.97F
HAGERSTOWN APT PTSUNNY   56  42  59 W15       29.93F
WESTMINSTER*   CLOUDY    54  43  66 W5        29.94F

$$

MDZ501>502-281900-
WESTERN MARYLAND

CITY           SKY/WX    TMP DP  RH WIND       PRES   REMARKS
OAKLAND*       FOG       36 N/A N/A W8        29.95F VSB<1/4
CUMBERLAND*    CLOUDY    50  41  71 NW10      30.00S

$$

VAZ025>031-281900-
SHENANDOAH VALLEY

CITY           SKY/WX    TMP DP  RH WIND       PRES   REMARKS
WINCHESTER*    CLOUDY    57  36  44 S3        29.94F
FRONT ROYAL*   MOCLDY    55  37  50 CALM      29.94R
LURAY*         RAIN      55  46  71 CALM      29.95R
NEW MARKET*    CLOUDY    53  39  58 CALM      29.95R
STAUNTON*      LGT RAIN  57  46  68 SW3       29.95F
WAYNESBORO*    CLOUDY    56  45  67 SW3       29.95F

$$

WVZ021-048>050-054>055-281900-
EASTERN WEST VIRGINIA PANHANDLE

CITY           SKY/WX    TMP DP  RH WIND       PRES   REMARKS
MARTINSBURG    CLOUDY    57  40  52 W10       29.94F
PETERSBURG*    PTSUNNY   56  40  55 W7        29.95F

$$

VAZ036>039-050-281900-
CENTRAL FOOTHILLS

CITY           SKY/WX    TMP DP  RH WIND       PRES   REMARKS
CHARLOTTESVILL CLOUDY    57  40  52 S3        29.93F
CULPEPER*      LGT RAIN  55  45  67 CALM      29.96S
ORANGE*        CLOUDY    55  41  58 CALM      29.96S
GORDONSVILLE*  MOCLDY    55  40  56 SW3       29.94F
WARRENTON*     DRIZZLE   56  49  77 CALM      29.95S

$$

VAZ055>057-281900-
NORTH AND CENTRAL PIEDMONT

CITY           SKY/WX    TMP DP  RH WIND       PRES   REMARKS
FREDERICKSBRG* CLOUDY    58  41  51 CALM      29.95S
STAFFORD*      CLOUDY    56  39  52 CALM      30.00S

$$

NCZ024-NYZ072-PAZ021-071-VAZ022-071-281900-
OTHER REGIONAL OBSERVATIONS

CITY           SKY/WX    TMP DP  RH WIND       PRES   REMARKS
NEW YORK CITY  CLOUDY    50  41  71 MISG      29.91F
PHILADELPHIA   CLOUDY    53  41  63 SW7       29.93F
PITTSBURGH     CLOUDY    36  34  92 NW12      30.03S WCI  28
ROANOKE        LGT RAIN  56  46  69 SW8       29.99F
RICHMOND       CLOUDY    63  46  54 SW10      29.95F
RALEIGH        CLOUDY    59  53  80 W8        30.02F

$$

ANZ530>537-281900-
MARINE OBSERVATIONS

STATION/POSITION TIME  TEMP    WIND        PRES
                       AIR SEA DIR/SP/G
                 (UTC) (F)     (DEG/KT/KT) (MB)
THOMAS PT LIGHT  1800   51 43  180/  8/  8 1015.1F
BALT KEY BRIDGE  1800   54     280/  2/  2 1013.5F
COVE POINT       1800   56     280/  5/  5 1013.8F
LEWISETTA        1800   56 45  360/  5/ 10 1013.9F
SOLOMONS ISLAND  1800      44                N/A
PINEY POINT      1800           10/  6/  7   N/A

$$



USA.gov is the U.S. government's official web portal to all federal, state and local government web resources and services.